Weather in Skopje

North Macedonia     41°59′45″N   21°25′53″E
temp.,
°C
wind,
m/s
gust,
m/s
humid.,
%
clouds,
%
prec.,
mm/h
press.,
hPa
HPBL,
m
27 november, sat
sat2701:00+5ene229624 1.5 100534
04:00+5ne119653 0.0 100434
07:00+5e12947 0.0 100638
10:00+9e1280100 0.0 1006326
13:00+11n216847 0.0 1004410
16:00+10ene2279100 0.0 100311
19:00+8ene1187100 0.0 100411
22:00+7nne119072 0.0 100510
28 november, sun
sun2801:00+7wnw118981 0.1 100510
04:00+8e11865 0.1 100410
07:00+6ene119142 0.1 100511
10:00+9ene2379100 0.0 1005331
13:00+14e2460100 0.0 1001670
16:00+11sse367296 0.2 1000164
19:00+9sse2492100 3.9 999284
22:00+9w129397 3.4 1000179
29 november, mon
mon2901:00+8nne1194100 3.8 99847
04:00+7n119766 0.0 99727
07:00+8n2289100 0.6 99922
10:00+9nw1274100 4.8 1001566
13:00+10ne2169100 4.8 999601
16:00+8se2480100 0.8 1000177
19:00+7nnw0185100 0.9 100027
22:00+6ne1189100 0.1 100114
30 november, tue
tue3001:00+6ne1188100 0.1 100228
04:00+5wsw1188100 0.7 100338
07:00+4n467499 1.2 1006715
10:00+5n3555100 0.2 10101313
13:00+5nnw475295 0.3 10121263
16:00+3nnw2455100 0.0 1015193
19:00+2ne116330 0.0 101849
22:000w00710 0.0 101911
1 december, wed
wed101:000w11720 0.0 102015
04:00−1e117344 0.0 102110
07:00−1n11744 0.0 102110
10:00+3ene11550 0.0 1021414
13:00+6e21470 0.0 1019522
16:00+3e11580 0.0 101910
19:00+2wnw11670 0.0 101910
22:00+1n007697 0.0 101810